Regional Weather Roundup
Issued by NWS

Home | Current Version | Previous Version | Graphics & Text | Print | Product List | Glossary On
Versions: 1 2 3 4 5 6 7 8 9 10 11 12 13 14 15 16 17 18 19 20 21 22 23 24 25 26 27
000
ASUS45 KCYS 271210
RWRWY

WYOMING REGIONAL WEATHER ROUNDUP
NATIONAL WEATHER SERVICE CHEYENNE WY
600 AM MDT TUE JUN 27 2017

NOTE:  "FAIR" INDICATES FEW OR NO CLOUDS BELOW 12,000 FEET
WITH NO SIGNIFICANT WEATHER AND/OR OBSTRUCTIONS TO VISIBILITY.

WYZ001-271300-
YELLOWSTONE NATIONAL PARK

CITY           SKY/WX    TMP DP  RH WIND       PRES   REMARKS
LK YELLOWSTONE   N/A     51  47  86 CALM      30.12F
6HR MIN TEMP:  51; 6HR MAX TEMP:  62;

W YELLOWSTONE  NOT AVBL

$$
WYZ002>013-054>058-071-098>099-271300-
NORTHERN WYOMING

CITY           SKY/WX    TMP DP  RH WIND       PRES   REMARKS
JACKSON        CLOUDY    55  48  76 N6        30.08F
CODY           MOCLDY    74  40  29 W16G24    29.91R
GREYBULL       FAIR      66  35  31 E5        29.79F
6HR MIN TEMP:  61; 6HR MAX TEMP:  78;

WORLAND        MOCLDY    69  39  33 N8        29.81S
6HR MIN TEMP:  58; 6HR MAX TEMP:  74;

SHERIDAN       FAIR      56  45  66 W10       29.78F
6HR MIN TEMP:  52; 6HR MAX TEMP:  68;

BUFFALO        FAIR      65  38  36 N9        29.84F
6HR MIN TEMP:  57; 6HR MAX TEMP:  66;

GILLETTE       FAIR      62  50  64 S12       29.79F
6HR MIN TEMP:  59; 6HR MAX TEMP:  69;

NEWCASTLE      FAIR      63  52  67 SE18G26   29.87S

$$
WYZ014>020-022>026-101>103-271300-
CENTRAL WYOMING

CITY           SKY/WX    TMP DP  RH WIND       PRES   REMARKS
BIG PINEY      FAIR      52  40  63 N10       30.08R
6HR MIN TEMP:  52; 6HR MAX TEMP:  61; 6HR PCP: TRACE;

PINEDALE       FAIR      48  41  76 MISG      30.09R
DUBOIS         PTSUNNY   57  39  51 NW10      30.11R
LANDER         FAIR      63  38  39 CALM      29.94R
6HR MIN TEMP:  62; 6HR MAX TEMP:  77;

RIVERTON       FAIR      69  38  32 NW15      29.92R
6HR MIN TEMP:  64; 6HR MAX TEMP:  74; 6HR PCP: TRACE;

CASPER         FAIR      70  38  31 SW14      29.90F
6HR MIN TEMP:  60; 6HR MAX TEMP:  75;

DOUGLAS        FAIR      58  54  86 SE13      29.91S
6HR MIN TEMP:  58; 6HR MAX TEMP:  67;


$$
WYZ021-027>030-104>119-271300-
SOUTHERN WYOMING

CITY           SKY/WX    TMP DP  RH WIND       PRES   REMARKS
EVANSTON       FAIR      57  31  37 W10       30.08R
6HR MIN TEMP:  54; 6HR MAX TEMP:  68;

KEMMERER         N/A     52  36  54 NW10      30.08R
FORT BRIDGER   FAIR      63  23  22 SW17      30.08R
ROCK SPRINGS   FAIR      65  32  29 S6        30.02S
6HR MIN TEMP:  64; 6HR MAX TEMP:  75; 6HR PCP: TRACE;

DIXON          FAIR      55  32  41 NE6       30.09S
RAWLINS        FAIR      59  30  33 E8        30.03F
6HR MIN TEMP:  54; 6HR MAX TEMP:  69;

SARATOGA       FAIR      59  32  36 SE13G20   30.09S
LARAMIE        FAIR      52  43  71 S7        30.10R
6HR MIN TEMP:  49; 6HR MAX TEMP:  60;

CHEYENNE       FOG       54  53  97 S9        30.03F VSB 1/4
6HR MIN TEMP:  54; 6HR MAX TEMP:  60;

TORRINGTON     MOCLDY    61  57  87 SE12      29.91F
6HR MIN TEMP:  61; 6HR MAX TEMP:  66;

PINE BLUFFS    FAIR      55  55 100 S7        30.00F

$$




USA.gov is the U.S. government's official web portal to all federal, state and local government web resources and services.